Weather History for St. Petersburg Airport, FL

Change the Weather History Date:

Saturday, April 14, 2012

  Actual Average Record
Temperature  
Mean Temperature 75 °F -  
Max Temperature 82 °F 81 °F 89 °F (1964)
Min Temperature 68 °F 65 °F 51 °F (1959)
Cooling Degree Days 10    
Growing Degree Days 25 (Base 50)    
Moisture  
Dew Point 62 °F    
Average Humidity 65    
Maximum Humidity 84    
Minimum Humidity 47    
Precipitation  
Precipitation 0.00 in - - ()
Sea Level Pressure  
Sea Level Pressure 30.17 in    
Wind  
Wind Speed 14 mph (East)    
Max Wind Speed 18 mph    
Max Gust Speed 26 mph    
Visibility 10 miles    
Events      
Averages and records for this station are not official NWS values.
T = Trace of Precipitation, MM = Missing Value Source: NWS Daily Summary

Daily Weather History Graph

Daily Weather History Graph

Search for Another Location

Airport:

Trip Planner

Search our weather history database for the weather conditions in past years. The results will help you decide how hot, cold, wet, or windy it might be!

Date:

Astronomy

Apr. 14, 2012 Rise Set
Actual Time 7:06 AM EDT 7:55 PM EDT
Civil Twilight 6:42 AM EDT 8:19 PM EDT
Nautical Twilight 6:14 AM EDT 8:48 PM EDT
Astronomical Twilight 5:45 AM EDT 9:16 PM EDT
Moon 2:56 AM EDT (4/14) 2:18 PM EDT (4/14)
Length of Visible Light 13h 37m
Length of Day
12h 49m
Last Quarter, 37% of the Moon is Illuminated
Apr 14
Last Quarter
Apr 21
New
Apr 29
First Quarter
May 5
Full
May 12
Last Quarter

Hourly Weather History & Observations

Time (EDT) Temp. Heat Index Dew Point Humidity Pressure Visibility Wind Dir Wind Speed Gust Speed Precip Events Conditions
12:53 AM 72.0 °F - 61.0 °F 68% 30.14 in 10.0 mi ENE 16.1 mph - N/A   Clear
1:53 AM 71.1 °F - 61.0 °F 70% 30.12 in 10.0 mi ENE 16.1 mph 23.0 mph N/A   Clear
2:53 AM 70.0 °F - 62.1 °F 76% 30.12 in 10.0 mi ENE 16.1 mph 20.7 mph N/A   Clear
3:53 AM 69.1 °F - 63.0 °F 81% 30.11 in 10.0 mi East 12.7 mph - N/A   Clear
4:53 AM 68.0 °F - 63.0 °F 84% 30.12 in 10.0 mi East 8.1 mph - N/A   Clear
5:53 AM 68.0 °F - 63.0 °F 84% 30.13 in 10.0 mi East 6.9 mph - N/A   Clear
6:53 AM 68.0 °F - 63.0 °F 84% 30.16 in 10.0 mi East 10.4 mph - N/A   Clear
7:53 AM 68.0 °F - 63.0 °F 84% 30.18 in 10.0 mi East 11.5 mph - N/A   Clear
8:53 AM 71.1 °F - 63.0 °F 75% 30.19 in 10.0 mi East 13.8 mph - N/A   Clear
9:53 AM 73.9 °F - 64.0 °F 71% 30.20 in 10.0 mi ESE 13.8 mph 21.9 mph N/A   Partly Cloudy
10:53 AM 78.1 °F - 64.0 °F 62% 30.22 in 10.0 mi East 17.3 mph 21.9 mph N/A   Partly Cloudy
11:53 AM 79.0 °F - 62.1 °F 56% 30.22 in 10.0 mi ESE 17.3 mph 23.0 mph N/A   Mostly Cloudy
12:53 PM 79.0 °F - 62.1 °F 56% 30.21 in 10.0 mi East 16.1 mph - N/A   Scattered Clouds
1:53 PM 82.0 °F 83.0 °F 62.1 °F 51% 30.20 in 10.0 mi East 13.8 mph 23.0 mph N/A   Scattered Clouds
2:53 PM 82.9 °F 83.3 °F 61.0 °F 47% 30.18 in 10.0 mi ESE 15.0 mph - N/A   Scattered Clouds
3:53 PM 82.9 °F 83.3 °F 61.0 °F 47% 30.15 in 10.0 mi ESE 16.1 mph - N/A   Clear
4:53 PM 80.1 °F 80.9 °F 60.1 °F 50% 30.14 in 10.0 mi ESE 15.0 mph - N/A   Partly Cloudy
5:53 PM 79.0 °F - 61.0 °F 54% 30.14 in 10.0 mi SE 18.4 mph 26.5 mph N/A   Overcast
6:53 PM 79.0 °F - 57.9 °F 48% 30.15 in 10.0 mi ESE 12.7 mph - N/A   Overcast
7:53 PM 77.0 °F - 60.1 °F 56% 30.16 in 10.0 mi ESE 11.5 mph - N/A   Overcast
8:53 PM 75.9 °F - 60.1 °F 58% 30.18 in 10.0 mi ESE 15.0 mph - N/A   Overcast
9:53 PM 75.0 °F - 60.1 °F 60% 30.20 in 10.0 mi East 12.7 mph - N/A   Mostly Cloudy
10:53 PM 73.0 °F - 61.0 °F 66% 30.22 in 10.0 mi East 13.8 mph - N/A   Scattered Clouds
11:53 PM 72.0 °F - 61.0 °F 68% 30.21 in 10.0 mi ESE 11.5 mph - N/A   Clear